Location: Krasnoyarskiy Pitomnik
(51.1333°N, 71.6167°E)
Time: 17:59:25
(UTC+00:00)

Vanguard 2 - Pass Details

Date: 23 April 2024
Orbit: 553 x 2914 km, 32.9° (Epoch: 22 May)

Event Time Altitude Azimuth Distance (km) Brightness Sun altitude
Exits shadow 22:05:06 18° 232° (SW) 4,651 10.8 -15.7°
Maximum altitude 22:16:16 40° 178° (S) 3,771 10.7 -14.4°
Drops below altitude 10° 22:31:35 10° 118° (ESE) 5,555 12.2 -12.7°
Sets 22:35:59 0° 112° (ESE) 6,389 12.6 -12.1°
